Location: ??? ?????
(30.6482°N, 60.5850°E)
Time: 08:42:14
(UTC+00:00)

Daily predictions for brighter satellites

Satellite Brightness Start Highest point End
(mag) Time Altitude Azimuth Time Altitude Azimuth Time Altitude Azimuth
ATLAS 2AS CENTAUR R/B 4.1 14:39:19 10° N 14:44:45 21° NE 14:49:52 10° E
Cosmos 1939 Rocket 2.8 14:40:52 10° SSE 14:44:48 88° ENE 14:48:41 10° N
FALCON 9 DEB 4.5 14:42:34 10° WSW 14:45:55 43° NW 14:49:16 10° NNE
CZ-4 R/B 1.8 14:42:37 10° S 14:46:25 65° W 14:50:14 10° NNW
STARLINK-1103 4.0 14:42:46 10° NW 14:46:51 65° SW 14:50:56 10° SSE
Cosmos 1953 2.3 14:43:03 10° S 14:47:00 85° E 14:50:59 10° N
Aureole 2 Rocket 2.3 14:47:34 10° NNW 14:50:58 88° WSW 14:54:10 10° SSE
STARLINK-1101 4.2 14:47:45 10° NW 14:51:49 57° SW 14:55:51 10° SSE
ATLAS 5 CENTAUR R/B 1.3 14:50:02 10° SSW 14:54:01 86° ESE 14:58:17 10° NNE
STARLINK-1102 4.4 14:52:48 10° NW 14:56:48 50° SW 15:00:48 10° SSE
USA 186 3.6 14:54:47 10° ESE 14:56:51 16° ENE 14:58:52 10° NE
H-2A R/B 2.9 14:54:01 10° SE 14:58:31 30° ENE 15:02:54 10° NNE
Cosmos 1626 4.4 14:57:07 10° NNW 15:00:20 28° W 15:03:32 10° SSW
CZ-2D R/B 4.0 14:58:59 10° S 15:02:42 55° W 15:06:26 10° NNW
SeaSat 1 3.6 14:59:06 10° N 15:03:49 47° WNW 15:08:31 10° SW
ATLAS 5 CENTAUR R/B 3.0 15:02:30 10° SW 15:06:06 28° SSE 15:13:32 13° ESE
Cosmos 1140 Rocket 3.7 15:01:24 10° S 15:06:21 47° ESE 15:11:18 10° NNE
OE (NEXTSAT) 4.5 15:03:42 10° SW 15:07:06 52° SE 15:10:31 10° ENE
Ariane Rocket 3.4 15:03:49 10° SE 15:08:34 43° ENE 15:13:20 10° N
Meteor 1-16 Rocket 4.1 15:04:23 10° S 15:09:44 87° E 15:15:16 10° N
CZ-2C R/B 3.5 15:08:04 10° SE 15:12:31 35° ENE 15:16:51 10° N
SL-8 R/B 3.8 15:08:16 10° NW 15:13:00 62° NE 15:16:33 17° ESE
Cosmos 614 Rocket 4.2 15:09:19 10° SSW 15:14:31 78° WNW 15:19:45 10° NNE
Cosmos 1943 Rocket 2.9 15:09:27 10° NNW 15:14:54 56° WSW 15:20:21 10° S
HJ-1C 3.3 15:12:13 10° SSE 15:15:33 90° SSE 15:18:56 10° N
Aureole 1 Rocket 4.4 15:07:38 10° SSW 15:15:42 89° ESE 15:22:13 10° NNE
GPS 2-04 Rocket1 2.9 15:12:21 10° SW 15:16:13 53° SSE 15:19:06 18° E
Cosmos 1190 Rocket 3.9 15:14:23 10° S 15:19:41 79° ESE 15:24:59 10° NNE
YAOGAN 1 4.3 15:15:52 10° SSW 15:19:47 34° W 15:23:43 10° NNW
ARGOS Delta rocket 4.2 15:22:51 10° S 15:28:05 84° W 15:33:33 10° NNW
IRIDIUM 104 4.4 15:24:22 10° N 15:29:35 84° W 15:34:47 10° S
SJ-6B 3.5 15:27:58 24° SE 15:29:50 37° ENE 15:33:39 10° N
ATLAS 2AS CENTAUR RB 4.4 15:00:33 10° WSW 15:30:42 29° SSW 15:36:33 12° SSE
BREEZE M DEB (TANK) 2.9 15:29:15 10° WSW 15:31:31 44° NNW 15:35:48 10° NE
Cosmos 2369 Rocket 2.9 15:26:08 10° NNW 15:31:39 55° WSW 15:37:05 10° S
Cosmos 1300 3.9 15:33:31 24° ENE 15:33:31 24° ENE 15:36:01 10° NNE
MONITOR-E 4.0 15:36:11 48° ENE 15:36:11 48° ENE 15:38:32 10° N
SL-24 R/B 3.8 15:32:41 10° NNE 15:36:21 50° E 15:39:18 14° S
Cosmos 2058 Rocket 3.0 15:35:54 10° S 15:40:23 75° E 15:44:54 10° N
SL-08 RB Rocket 4.0 15:40:06 30° SE 15:41:50 45° ENE 15:46:14 10° N
CZ-2C R/B 3.6 15:38:10 10° NNE 15:42:47 67° ESE 15:47:18 10° S
Cosmos 1726 Rocket 4.2 15:39:08 10° SSW 15:43:26 57° W 15:47:48 10° N
Meteor 2-17 Rocket 4.5 15:37:28 10° N 15:43:33 60° E 15:48:14 17° SSE
Cosmos 2184 Rocket 4.1 15:37:39 10° N 15:43:54 81° W 15:50:04 10° S
MOS 1 4.2 15:43:35 13° SSE 15:48:35 81° ENE 15:54:15 10° N
DMSP B5D2-2 4.1 15:43:44 10° NNE 15:48:51 56° E 15:53:59 10° S
Cosmos 676 Rocket 3.9 15:43:34 10° SSW 15:48:52 86° ESE 15:54:09 10° NNE
Hubble Space Telescope 0.8 15:45:07 10° WSW 15:49:11 62° S 15:49:58 50° SE
Nadezhda 1 Rocket 4.3 15:44:47 10° SSW 15:51:08 70° W 15:57:30 10° N
MetOp-A 4.5 15:50:49 36° ESE 15:52:16 44° ENE 15:57:18 10° N
Cosmos 1656 Rocket 3.7 15:48:44 10° NNW 15:54:21 80° WSW 15:57:58 22° SSE
BREEZE-M DEB (TANK) 4.2 15:45:39 10° SW 15:54:33 69° NW 15:56:58 19° NE
Cosmos 1461 3.8 15:50:40 10° N 15:54:56 36° ENE 15:55:10 36° ENE
Cosmos 1340 Rocket 3.5 15:51:29 10° SSW 15:55:27 56° W 15:59:26 10° N
Cosmos 921 Rocket 3.8 15:52:51 10° N 15:56:03 33° NE 15:56:03 33° NE
Cosmos 1703 3.8 15:56:02 10° NNW 15:59:55 57° W 16:02:17 22° SSW
Cosmos 2181 Rocket 4.2 15:58:38 32° SE 16:01:03 48° E 16:06:58 10° NNE
Resurs 01 Rocket 3.0 16:02:37 24° NE 16:02:37 24° NE 16:05:06 10° NNE
ARGOS 3.3 15:58:02 16° S 16:02:26 75° WSW 16:07:49 10° NNW
SPOT 3 Rocket 3.6 16:01:26 46° SE 16:02:44 60° ENE 16:07:50 10° N
CZ-3 Stage 3 4.4 15:56:53 10° W 16:04:10 89° N 17:00:08 10° E
NOSS 3-4 (A) 3.9 15:57:01 10° NNW 16:04:18 66° ENE 16:07:34 37° SE
NOSS 3-4 (C) 3.9 15:57:08 10° NNW 16:04:24 66° ENE 16:07:38 37° SE
FREGAT/IRIS 4.1 16:04:22 30° WSW 16:04:26 30° W 16:06:54 10° NNW
SEDSat Delta rocket 4.0 15:59:45 10° W 16:04:35 39° SSW 16:05:27 35° S
CZ-2C R/B 2.4 16:00:20 10° NNE 16:05:31 70° ESE 16:09:01 21° S
GEOS 3 Rocket 3.5 16:05:07 42° SSE 16:06:55 84° WSW 16:12:07 10° NNW
Cosmos 2154 Rocket 4.0 16:00:34 10° N 16:06:55 84° W 16:11:54 17° S
MOS 1 Rocket 3.5 16:03:11 10° NNE 16:08:39 81° ESE 16:13:20 14° S
USA 186 4.5 16:26:31 15° WSW 16:27:37 17° W 16:29:54 10° NW
USA 234 3.1 16:22:25 10° NE 16:28:59 89° SE 16:35:32 10° SW
ATLAS 2AS CENTAUR R/B 2.8 16:29:08 10° NNW 16:36:23 70° WSW 16:38:03 51° S
H-2A R/B 4.0 16:33:36 10° SSW 16:37:49 25° W 16:41:58 10° NW
Centaur AC-42 3.9 16:37:47 10° WSW 16:38:50 15° SW 16:38:50 15° SW
COSMOS 2455 2.9 16:42:08 10° NNW 16:47:36 74° N 16:47:36 74° N
Cosmos 2297 Rocket 4.3 22:25:23 19° N 22:25:23 19° N 22:26:59 10° N
ATLAS 3B R/B 3.2 22:35:04 52° ENE 22:35:04 52° ENE 22:40:18 10° NE
ADEOS II 4.1 22:32:02 10° N 22:33:43 21° N 22:33:43 21° N
ARIANE 5 R/B 4.2 22:37:58 10° NNE 22:40:21 28° NNE 22:40:21 28° NNE
USA 267 3.5 22:37:19 10° NE 22:42:45 63° NNE 22:42:45 63° NNE
IDEFIX/ARIANE 42P 3.8 22:42:45 10° NNE 22:46:52 36° E 22:46:52 36° E
Cosmos 2227 Rocket 4.2 22:51:41 18° NNW 22:51:41 18° NNW 22:53:30 10° N
CENTAUR R/B 3.6 23:25:36 27° NW 23:25:36 27° NW 23:30:42 10° N
Cosmos 1300 Rocket 3.9 23:25:04 10° N 23:29:06 62° ENE 23:29:06 62° ENE
MSX 3.9 23:26:05 10° NNE 23:31:52 74° ESE 23:34:02 40° S
SL-16 R/B 2.0 23:26:30 10° NNW 23:32:11 83° WSW 23:37:50 10° SSE
Cosmos 1867 3.6 23:35:01 61° WNW 23:35:01 61° WNW 23:40:21 10° NNE
Cosmos 1092 Rocket 4.2 23:34:26 21° S 23:38:52 72° E 23:45:09 10° N
Cosmos 1378 Rocket 4.0 23:38:35 43° SE 23:39:40 58° E 23:43:57 10° NNE
PSLV R/B 3.7 23:36:36 10° NNE 23:40:58 72° ESE 23:41:40 58° SSE
Cosmos 1269 Rocket 4.1 23:35:55 10° NNW 23:41:14 75° ENE 23:46:31 10° SSE
Meteor 1-13 Rocket 4.1 23:41:00 58° SW 23:41:55 69° W 23:47:34 10° N
Gbstr 26 Del rocket 4.0 23:41:59 50° W 23:43:18 61° NW 23:48:51 10° NE
Lacrosse 5 4.2 23:40:20 10° SSE 23:43:43 18° ESE 23:47:07 10° ENE
Geosat 4.1 23:41:58 10° NNE 23:47:00 72° ESE 23:48:58 37° S
Cosmos 2026 Rocket 4.5 23:41:34 10° S 23:47:32 58° E 23:53:28 10° NNE
Okean 2 Rocket 3.6 23:43:26 10° NNW 23:46:47 45° NW 23:46:47 45° NW
Cosmos 2151 Rocket 3.4 23:45:24 10° N 23:49:48 87° W 23:51:14 43° S
Nadezhda 4 Rocket 4.1 23:49:13 45° WSW 23:50:39 53° W 23:56:50 10° N
ATLAS 5 CENTAUR R/B 3.6 23:45:01 10° NNW 23:50:53 44° ENE 23:57:25 10° SE
EPKM 3.8 23:54:31 21° SSE 23:54:31 21° SSE 23:55:49 10° ESE
Palapa 6 Rocket 4.3 23:54:33 22° SSE 23:54:33 22° SSE 23:56:45 10° SE
Cosmos 2263 Rocket 2.1 23:52:00 44° SW 23:53:49 74° WNW 23:59:30 10° NNE
